Location: Sunny Point
(33.0946°N, 85.0574°W)
Time: 06:50:16
(UTC+00:00)

Envisat - Pass Details

Date: 30 May 2024
Orbit: 762 x 764 km, 98.3° (Epoch: 20 June)

Event Time Altitude Azimuth Distance (km) Brightness Sun altitude
Rises 08:51:31 0° 12° (NNE) 3,229 7.2 -18.2°
Reaches altitude 10° 08:53:49 10° 13° (NNE) 2,300 6.3 -17.9°
Maximum altitude 08:58:54 86° 103° (ESE) 768 3.0 -17.1°
Enters shadow 09:02:28 20° 192° (SSW) 1,702 4.3 -16.5°
